OBJECT A, 61894

Orbit data source: Space-Track

You're viewing an Uncataloged Satellite

Recently launched and/or uncataloged satellites may have evolving metadata. Metadata may include but not limited to: Owner, Maufacturer, Bus, Motor, and Mission.

OBJECT A, 61894 is a satellite owned by CASC (CN) in SSO that was launched on Mon, 11 Nov 2024 UTC via a LIJIAN-1 launch vehicle from the Jiuquan Satellite Launch Center, China (JSC). Unknown objects in Earth's orbit typically refer to objects detected orbiting the Earth but have not yet been identified or cataloged. These objects could be anything from previously untracked satellites, spent rocket stages, debris from satellite collisions, or even natural meteoroids temporarily captured by Earth's gravity.

Loading next visibility...
Identifier
61894, 2024-205A
Orbit
SSO
Last TLE update
4 hours ago
Origin
Flag of CNCASC (CN / PRC)
Manufacturer
SECM?
Mission
Operational Defense Technology
Bus & Motor
Unknown
Mass
~100 kg wet, ~100 kg dry
Launch date (UTC)
2024-11-11 (8 months ago)
Launch vehicle
LIJIAN-1
Launch site
Jiuquan Satellite Launch Center, China (JSC)
Object type
Unknown
Shape & HBR
Box + 2 Pan, 5 m
Radar Cross Section
4.795 m², Medium (>0.1 m² and < 1m²)

Expand to show TLE details & history

TLE from 4 hours ago
0 OBJECT A
1 61894U 24205A   25182.20955165  .00008228  00000-0  44556-3 0  9999
2 61894  97.4512 255.5737 0025584 167.6755 192.5108 15.14592292 35096
Epoch: 2025-07-01T05:01Z
TLE epoch observation values (Epoch: 2025-07-01T05:01:45.262Z)
Latitude
-0.00007°
Longitude
-99.37317°
Altitude
542.539 km
Speed
7.582 km/s
True Right ascension
17h 02m 17s
True Declination
0° 00' 00"
Sunlit
Object was in full shadow at epoch
Visualization orbit readout
Latitude
-66.22158°
Longitude
-82.02098°
Altitude
557.653 km
Speed
7.576 km/s
Apparent Right ascension
11h 23m 46s
Apparent Declination
-71° 30' 22"
Sunlit
Object is in full shadow
Visualization observer readout
Local Sidereal Time
21:07:35
Azimuth
197.633° SSW
Elevation
-54.107°
Doppler factor
1
Orbital elements
Apogee altitude
536.838 km
Perigee altitude
501.545 km
Semi-major axis
6,897.329 km
Eccentricity
0.00256
Inclination
97.4512°
RAAN
255.5737°
Arg. of periapsis
167.6755°
True anomaly
Unknown
Mean anomaly
192.5108°
Eccentric anomaly
Unknown
Mean motion
3.78898 °/min
Orbital period
95.01 mins
BSTAR
0.00044556
Loading maneuver chart data...
Loading SW <> Apogee altitude chart data...
Loading historical data...
Loading historical data...
Loading historical data...
Loading historical data...
Loading historical data...
Loading historical data...
Loading historical data...

OBJECT A Visibility forecast

Observer location: undefined°, undefined°

Span
Click to sort rows by Start time (UTC) header in descending order
Start Az.
Max El. time (UTC)
Max El. Az.
Max El.
End time (UTC)
End Az.
5 mins2025-07-01 18:17:17.939Z342.083° N2025-07-01 18:19:17.939Z289.262° WNW30.155°2025-07-01 18:22:17.939Z223.418° SW
5 mins2025-07-02 04:57:17.939Z166.823° S2025-07-02 04:59:17.939Z163.867° S44.748°2025-07-02 05:02:17.939Z348.077° N
|